Year,Month,Day,Hour,Minute,Value (Times are PST for temperature in C)
2009,07,29,00,00,23.50
2009,07,29,00,01,23.40
2009,07,29,00,02,23.50
2009,07,29,00,03,23.40
2009,07,29,00,04,23.40
2009,07,29,00,05,23.40
2009,07,29,00,06,23.40
2009,07,29,00,07,23.40
2009,07,29,00,08,23.40
2009,07,29,00,09,23.50
2009,07,29,00,10,23.50
2009,07,29,00,11,23.50
2009,07,29,00,12,23.50
2009,07,29,00,13,23.50
2009,07,29,00,14,23.40
2009,07,29,00,15,23.40
2009,07,29,00,16,23.40
2009,07,29,00,17,23.40
2009,07,29,00,18,23.40
2009,07,29,00,19,23.40
2009,07,29,00,20,23.40
2009,07,29,00,21,23.40
2009,07,29,00,22,23.40
2009,07,29,00,23,23.40
2009,07,29,00,24,23.40
2009,07,29,00,25,23.40
2009,07,29,00,26,23.40
2009,07,29,00,27,23.40
2009,07,29,00,28,23.40
2009,07,29,00,29,23.40
2009,07,29,00,30,23.40
2009,07,29,00,31,23.30
2009,07,29,00,32,23.30
2009,07,29,00,33,23.30
2009,07,29,00,34,23.30
2009,07,29,00,35,23.30
2009,07,29,00,36,23.20
2009,07,29,00,37,23.20
2009,07,29,00,38,23.20
2009,07,29,00,39,23.20
2009,07,29,00,40,23.20
2009,07,29,00,41,23.20
2009,07,29,00,42,23.20
2009,07,29,00,43,23.10
2009,07,29,00,44,23.10
2009,07,29,00,45,23.10
2009,07,29,00,46,23.10
2009,07,29,00,47,23.10
2009,07,29,00,48,23.00
2009,07,29,00,49,23.00
2009,07,29,00,50,23.00
2009,07,29,00,51,23.00
2009,07,29,00,52,22.90
2009,07,29,00,53,22.90
2009,07,29,00,54,22.90
2009,07,29,00,55,22.90
2009,07,29,00,56,22.80
2009,07,29,00,57,22.80
2009,07,29,00,58,22.80
2009,07,29,00,59,22.70
2009,07,29,01,00,22.70
2009,07,29,01,01,22.70
2009,07,29,01,02,22.60
2009,07,29,01,03,22.60
2009,07,29,01,04,22.60
2009,07,29,01,05,22.50
2009,07,29,01,06,22.50
2009,07,29,01,07,22.50
2009,07,29,01,08,22.40
2009,07,29,01,09,22.40
2009,07,29,01,10,22.30
2009,07,29,01,11,22.30
2009,07,29,01,12,22.30
2009,07,29,01,13,22.30
2009,07,29,01,14,22.30
2009,07,29,01,15,22.20
2009,07,29,01,16,22.20
2009,07,29,01,17,22.20
2009,07,29,01,18,22.20
2009,07,29,01,19,22.20
2009,07,29,01,20,22.20
2009,07,29,01,21,22.20
2009,07,29,01,22,22.20
2009,07,29,01,23,22.20
2009,07,29,01,24,22.20
2009,07,29,01,25,22.20
2009,07,29,01,26,22.20
2009,07,29,01,27,22.20
2009,07,29,01,28,22.20
2009,07,29,01,29,22.10
2009,07,29,01,30,22.10
2009,07,29,01,31,22.10
2009,07,29,01,32,22.10
2009,07,29,01,33,22.10
2009,07,29,01,34,22.10
2009,07,29,01,35,22.10
2009,07,29,01,36,22.10
2009,07,29,01,37,22.10
2009,07,29,01,38,22.10
2009,07,29,01,39,22.10
2009,07,29,01,40,22.10
2009,07,29,01,41,22.10
2009,07,29,01,42,22.10
2009,07,29,01,43,22.10
2009,07,29,01,44,22.00
2009,07,29,01,45,22.00
2009,07,29,01,46,22.00
2009,07,29,01,47,22.00
2009,07,29,01,48,22.00
2009,07,29,01,49,22.00
2009,07,29,01,50,21.90
2009,07,29,01,51,21.90
2009,07,29,01,52,21.90
2009,07,29,01,53,21.90
2009,07,29,01,54,21.90
2009,07,29,01,55,21.90
2009,07,29,01,56,21.80
2009,07,29,01,57,21.70
2009,07,29,01,58,21.60
2009,07,29,01,59,21.50
2009,07,29,02,00,21.40
2009,07,29,02,01,21.30
2009,07,29,02,02,21.20
2009,07,29,02,03,21.20
2009,07,29,02,04,21.10
2009,07,29,02,05,21.00
2009,07,29,02,06,21.00
2009,07,29,02,07,20.90
2009,07,29,02,08,20.80
2009,07,29,02,09,20.80
2009,07,29,02,10,20.70
2009,07,29,02,11,20.70
2009,07,29,02,12,20.60
2009,07,29,02,13,20.60
2009,07,29,02,14,20.50
2009,07,29,02,15,20.50
2009,07,29,02,16,20.40
2009,07,29,02,17,20.40
2009,07,29,02,18,20.30
2009,07,29,02,19,20.30
2009,07,29,02,20,20.30
2009,07,29,02,21,20.20
2009,07,29,02,22,20.20
2009,07,29,02,23,20.20
2009,07,29,02,24,20.20
2009,07,29,02,25,20.20
2009,07,29,02,26,20.20
2009,07,29,02,27,20.20
2009,07,29,02,28,20.20
2009,07,29,02,29,20.20
2009,07,29,02,30,20.20
2009,07,29,02,31,20.20
2009,07,29,02,32,20.20
2009,07,29,02,33,20.20
2009,07,29,02,34,20.20
2009,07,29,02,35,20.20
2009,07,29,02,36,20.20
2009,07,29,02,37,20.20
2009,07,29,02,38,20.20
2009,07,29,02,39,20.20
2009,07,29,02,40,20.20
2009,07,29,02,41,20.20
2009,07,29,02,42,20.20
2009,07,29,02,43,20.20
2009,07,29,02,44,20.20
2009,07,29,02,45,20.20
2009,07,29,02,46,20.20
2009,07,29,02,47,20.20
2009,07,29,02,48,20.20
2009,07,29,02,49,20.20
2009,07,29,02,50,20.20
2009,07,29,02,51,20.20
2009,07,29,02,52,20.20
2009,07,29,02,53,20.20
2009,07,29,02,54,20.30
2009,07,29,02,55,20.30
2009,07,29,02,56,20.30
2009,07,29,02,57,20.30
2009,07,29,02,58,20.40
2009,07,29,02,59,20.40
2009,07,29,03,00,20.50
2009,07,29,03,01,20.50
2009,07,29,03,02,20.60
2009,07,29,03,03,20.60
2009,07,29,03,04,20.60
2009,07,29,03,05,20.60
2009,07,29,03,06,20.60
2009,07,29,03,07,20.60
2009,07,29,03,08,20.60
2009,07,29,03,09,20.60
2009,07,29,03,10,20.60
2009,07,29,03,11,20.60
2009,07,29,03,12,20.50
2009,07,29,03,13,20.50
2009,07,29,03,14,20.40
2009,07,29,03,15,20.40
2009,07,29,03,16,20.40
2009,07,29,03,17,20.30
2009,07,29,03,18,20.30
2009,07,29,03,19,20.20
2009,07,29,03,20,20.20
2009,07,29,03,21,20.10
2009,07,29,03,22,20.00
2009,07,29,03,23,20.00
2009,07,29,03,24,19.90
2009,07,29,03,25,19.90
2009,07,29,03,26,19.80
2009,07,29,03,27,19.70
2009,07,29,03,28,19.70
2009,07,29,03,29,19.60
2009,07,29,03,30,19.60
2009,07,29,03,31,19.50
2009,07,29,03,32,19.40
2009,07,29,03,33,19.40
2009,07,29,03,34,19.30
2009,07,29,03,35,19.20
2009,07,29,03,36,19.10
2009,07,29,03,37,19.10
2009,07,29,03,38,19.00
2009,07,29,03,39,18.90
2009,07,29,03,40,18.80
2009,07,29,03,41,18.70
2009,07,29,03,42,18.70
2009,07,29,03,43,18.60
2009,07,29,03,44,18.60
2009,07,29,03,45,18.50
2009,07,29,03,46,18.40
2009,07,29,03,47,18.30
2009,07,29,03,48,18.20
2009,07,29,03,49,18.20
2009,07,29,03,50,18.10
2009,07,29,03,51,18.10
2009,07,29,03,52,18.00
2009,07,29,03,53,18.00
2009,07,29,03,54,17.90
2009,07,29,03,55,17.90
2009,07,29,03,56,17.80
2009,07,29,03,57,17.80
2009,07,29,03,58,17.80
2009,07,29,03,59,17.70
2009,07,29,04,00,17.70
2009,07,29,04,01,17.70
2009,07,29,04,02,17.70
2009,07,29,04,03,17.70
2009,07,29,04,04,17.80
2009,07,29,04,05,17.80
2009,07,29,04,06,17.80
2009,07,29,04,07,17.80
2009,07,29,04,08,17.90
2009,07,29,04,09,17.90
2009,07,29,04,10,17.90
2009,07,29,04,11,17.90
2009,07,29,04,12,17.90
2009,07,29,04,13,17.90
2009,07,29,04,14,17.90
2009,07,29,04,15,18.00
2009,07,29,04,16,18.00
2009,07,29,04,17,18.10
2009,07,29,04,18,18.10
2009,07,29,04,19,18.10
2009,07,29,04,20,18.20
2009,07,29,04,21,18.20
2009,07,29,04,22,18.30
2009,07,29,04,23,18.30
2009,07,29,04,24,18.40
2009,07,29,04,25,18.40
2009,07,29,04,26,18.40
2009,07,29,04,27,18.40
2009,07,29,04,28,18.40
2009,07,29,04,29,18.40
2009,07,29,04,30,18.40
2009,07,29,04,31,18.40
2009,07,29,04,32,18.40
2009,07,29,04,33,18.40
2009,07,29,04,34,18.40
2009,07,29,04,35,18.40
2009,07,29,04,36,18.50
2009,07,29,04,37,18.50
2009,07,29,04,38,18.50
2009,07,29,04,39,18.60
2009,07,29,04,40,18.60
2009,07,29,04,41,18.60
2009,07,29,04,42,18.60
2009,07,29,04,43,18.70
2009,07,29,04,44,18.70
2009,07,29,04,45,18.70
2009,07,29,04,46,18.70
2009,07,29,04,47,18.70
2009,07,29,04,48,18.70
2009,07,29,04,49,18.70
2009,07,29,04,50,18.70
2009,07,29,04,51,18.70
2009,07,29,04,52,18.70
2009,07,29,04,53,18.70
2009,07,29,04,54,18.70
2009,07,29,04,55,18.70
2009,07,29,04,56,18.70
2009,07,29,04,57,18.80
2009,07,29,04,58,18.80
2009,07,29,04,59,18.80
2009,07,29,05,00,18.80
2009,07,29,05,01,18.80
2009,07,29,05,02,18.80
2009,07,29,05,03,18.90
2009,07,29,05,04,18.90
2009,07,29,05,05,18.90
2009,07,29,05,06,18.90
2009,07,29,05,07,18.90
2009,07,29,05,08,19.00
2009,07,29,05,09,19.00
2009,07,29,05,10,19.00
2009,07,29,05,11,19.00
2009,07,29,05,12,19.00
2009,07,29,05,13,19.10
2009,07,29,05,14,19.10
2009,07,29,05,15,19.10
2009,07,29,05,16,19.10
2009,07,29,05,17,19.10
2009,07,29,05,18,19.10
2009,07,29,05,19,19.10
2009,07,29,05,20,19.10
2009,07,29,05,21,19.10
2009,07,29,05,22,19.10
2009,07,29,05,23,19.10
2009,07,29,05,24,19.10
2009,07,29,05,25,19.10
2009,07,29,05,26,19.10
2009,07,29,05,27,19.10
2009,07,29,05,28,19.10
2009,07,29,05,29,19.10
2009,07,29,05,30,19.10
2009,07,29,05,31,19.10
2009,07,29,05,32,19.10
2009,07,29,05,33,19.10
2009,07,29,05,34,19.10
2009,07,29,05,35,19.10
2009,07,29,05,36,19.10
2009,07,29,05,37,19.10
2009,07,29,05,38,19.10
2009,07,29,05,39,19.10
2009,07,29,05,40,19.10
2009,07,29,05,41,19.20
2009,07,29,05,42,19.20
2009,07,29,05,43,19.20
2009,07,29,05,44,19.20
2009,07,29,05,45,19.20
2009,07,29,05,46,19.20
2009,07,29,05,47,19.20
2009,07,29,05,48,19.30
2009,07,29,05,49,19.30
2009,07,29,05,50,19.30
2009,07,29,05,51,19.30
2009,07,29,05,52,19.30
2009,07,29,05,53,19.30
2009,07,29,05,54,19.30
2009,07,29,05,55,19.30
2009,07,29,05,56,19.30
2009,07,29,05,57,19.40
2009,07,29,05,58,19.40
2009,07,29,05,59,19.40
2009,07,29,06,00,19.50
2009,07,29,06,01,19.50
2009,07,29,06,02,19.50
2009,07,29,06,03,19.60
2009,07,29,06,04,19.60
2009,07,29,06,05,19.60
2009,07,29,06,06,19.60
2009,07,29,06,07,19.60
2009,07,29,06,08,19.60
2009,07,29,06,09,19.60
2009,07,29,06,10,19.60
2009,07,29,06,11,19.70
2009,07,29,06,12,19.70
2009,07,29,06,13,19.70
2009,07,29,06,14,19.70
2009,07,29,06,15,19.70
2009,07,29,06,16,19.70
2009,07,29,06,17,19.70
2009,07,29,06,18,19.70
2009,07,29,06,19,19.70
2009,07,29,06,20,19.80
2009,07,29,06,21,19.80
2009,07,29,06,22,19.80
2009,07,29,06,23,19.80
2009,07,29,06,24,19.90
2009,07,29,06,25,19.90
2009,07,29,06,26,20.00
2009,07,29,06,27,20.00
2009,07,29,06,28,20.10
2009,07,29,06,29,20.10
2009,07,29,06,30,20.10
2009,07,29,06,31,20.20
2009,07,29,06,32,20.20
2009,07,29,06,33,20.20
2009,07,29,06,34,20.30
2009,07,29,06,35,20.30
2009,07,29,06,36,20.30
2009,07,29,06,37,20.40
2009,07,29,06,38,20.40
2009,07,29,06,39,20.50
2009,07,29,06,40,20.50
2009,07,29,06,41,20.50
2009,07,29,06,42,20.60
2009,07,29,06,43,20.60
2009,07,29,06,44,20.60
2009,07,29,06,45,20.60
2009,07,29,06,46,20.60
2009,07,29,06,47,20.60
2009,07,29,06,48,20.60
2009,07,29,06,49,20.60
2009,07,29,06,50,20.60
2009,07,29,06,51,20.60
2009,07,29,06,52,20.70
2009,07,29,06,53,20.70
2009,07,29,06,54,20.60
2009,07,29,06,55,20.50
2009,07,29,06,56,20.50
2009,07,29,06,57,20.40
2009,07,29,06,58,20.20
2009,07,29,06,59,20.00
2009,07,29,07,00,19.90
2009,07,29,07,01,19.80
2009,07,29,07,02,19.60
2009,07,29,07,03,19.50
2009,07,29,07,04,19.40
2009,07,29,07,05,19.30
2009,07,29,07,06,19.20
2009,07,29,07,07,19.20
2009,07,29,07,08,19.20
2009,07,29,07,09,19.10
2009,07,29,07,10,19.10
2009,07,29,07,11,19.10
2009,07,29,07,12,19.10
2009,07,29,07,13,19.10
2009,07,29,07,14,19.10
2009,07,29,07,15,19.20
2009,07,29,07,16,19.20
2009,07,29,07,17,19.20
2009,07,29,07,18,19.30
2009,07,29,07,19,19.30
2009,07,29,07,20,19.40
2009,07,29,07,21,19.40
2009,07,29,07,22,19.50
2009,07,29,07,23,19.60
2009,07,29,07,24,19.60
2009,07,29,07,25,19.70
2009,07,29,07,26,19.70
2009,07,29,07,27,19.80
2009,07,29,07,28,19.80
2009,07,29,07,29,19.90
2009,07,29,07,30,20.00
2009,07,29,07,31,20.00
2009,07,29,07,32,20.10
2009,07,29,07,33,20.20
2009,07,29,07,34,20.20
2009,07,29,07,35,20.30
2009,07,29,07,36,20.40
2009,07,29,07,37,20.50
2009,07,29,07,38,20.60
2009,07,29,07,39,20.70
2009,07,29,07,40,20.80
2009,07,29,07,41,20.80
2009,07,29,07,42,21.00
2009,07,29,07,43,21.10
2009,07,29,07,44,21.20
2009,07,29,07,45,21.40
2009,07,29,07,46,21.50
2009,07,29,07,47,21.60
2009,07,29,07,48,21.70
2009,07,29,07,49,21.90
2009,07,29,07,50,22.00
2009,07,29,07,51,22.10
2009,07,29,07,52,22.20
2009,07,29,07,53,22.20
2009,07,29,07,54,22.30
2009,07,29,07,55,22.30
2009,07,29,07,56,22.30
2009,07,29,07,57,22.30
2009,07,29,07,58,22.30
2009,07,29,07,59,22.30
2009,07,29,08,00,22.40
2009,07,29,08,01,22.40
2009,07,29,08,02,22.50
2009,07,29,08,03,22.60
2009,07,29,08,04,22.70
2009,07,29,08,05,22.80
2009,07,29,08,06,22.90
2009,07,29,08,07,23.00
2009,07,29,08,08,23.20
2009,07,29,08,09,23.30
2009,07,29,08,10,23.40
2009,07,29,08,11,23.50
2009,07,29,08,12,23.60
2009,07,29,08,13,23.70
2009,07,29,08,14,23.70
2009,07,29,08,15,23.80
2009,07,29,08,16,23.90
2009,07,29,08,17,23.90
2009,07,29,08,18,23.90
2009,07,29,08,19,23.90
2009,07,29,08,20,23.90
2009,07,29,08,21,23.90
2009,07,29,08,22,23.90
2009,07,29,08,23,23.90
2009,07,29,08,24,23.90
2009,07,29,08,25,24.00
2009,07,29,08,26,24.00
2009,07,29,08,27,24.00
2009,07,29,08,28,24.10
2009,07,29,08,29,24.10
2009,07,29,08,30,24.10
2009,07,29,08,31,24.10
2009,07,29,08,32,24.10
2009,07,29,08,33,24.20
2009,07,29,08,34,24.20
2009,07,29,08,35,24.20
2009,07,29,08,36,24.20
2009,07,29,08,37,24.30
2009,07,29,08,38,24.30
2009,07,29,08,39,24.40
2009,07,29,08,40,24.40
2009,07,29,08,41,24.50
2009,07,29,08,42,24.50
2009,07,29,08,43,24.60
2009,07,29,08,44,24.60
2009,07,29,08,45,24.60
2009,07,29,08,46,24.70
2009,07,29,08,47,24.70
2009,07,29,08,48,24.80
2009,07,29,08,49,24.90
2009,07,29,08,50,24.90
2009,07,29,08,51,25.00
2009,07,29,08,52,25.00
2009,07,29,08,53,25.10
2009,07,29,08,54,25.10
2009,07,29,08,55,25.10
2009,07,29,08,56,25.10
2009,07,29,08,57,25.10
2009,07,29,08,58,25.10
2009,07,29,08,59,25.10
2009,07,29,09,00,25.10
2009,07,29,09,01,25.10
2009,07,29,09,02,25.20
2009,07,29,09,03,25.20
2009,07,29,09,04,25.20
2009,07,29,09,05,25.20
2009,07,29,09,06,25.20
2009,07,29,09,07,25.30
2009,07,29,09,08,25.40
2009,07,29,09,09,25.50
2009,07,29,09,10,25.50
2009,07,29,09,11,25.60
2009,07,29,09,12,25.70
2009,07,29,09,13,25.70
2009,07,29,09,14,25.80
2009,07,29,09,15,25.80
2009,07,29,09,16,25.90
2009,07,29,09,17,25.90
2009,07,29,09,18,25.90
2009,07,29,09,19,25.90
2009,07,29,09,20,26.00
2009,07,29,09,21,26.00
2009,07,29,09,22,26.10
2009,07,29,09,23,26.10
2009,07,29,09,24,26.20
2009,07,29,09,25,26.20
2009,07,29,09,26,26.20
2009,07,29,09,27,26.20
2009,07,29,09,28,26.20
2009,07,29,09,29,26.10
2009,07,29,09,30,26.10
2009,07,29,09,31,26.10
2009,07,29,09,32,26.00
2009,07,29,09,33,26.00
2009,07,29,09,34,26.10
2009,07,29,09,35,26.10
2009,07,29,09,36,26.10
2009,07,29,09,37,26.20
2009,07,29,09,38,26.20
2009,07,29,09,39,26.20
2009,07,29,09,40,26.20
2009,07,29,09,41,26.20
2009,07,29,09,42,26.20
2009,07,29,09,43,26.20
2009,07,29,09,44,26.20
2009,07,29,09,45,26.20
2009,07,29,09,46,26.20
2009,07,29,09,47,26.20
2009,07,29,09,48,26.30
2009,07,29,09,49,26.30
2009,07,29,09,50,26.30
2009,07,29,09,51,26.30
2009,07,29,09,52,26.30
2009,07,29,09,53,26.20
2009,07,29,09,54,26.20
2009,07,29,09,55,26.30
2009,07,29,09,56,26.30
2009,07,29,09,57,26.40
2009,07,29,09,58,26.40
2009,07,29,09,59,26.40
2009,07,29,10,00,26.40
2009,07,29,10,01,26.50
2009,07,29,10,02,26.50
2009,07,29,10,03,26.60
2009,07,29,10,04,26.50
2009,07,29,10,05,26.50
2009,07,29,10,06,26.50
2009,07,29,10,07,26.60
2009,07,29,10,08,26.60
2009,07,29,10,09,26.60
2009,07,29,10,10,26.70
2009,07,29,10,11,26.70
2009,07,29,10,12,26.80
2009,07,29,10,13,26.80
2009,07,29,10,14,26.80
2009,07,29,10,15,26.90
2009,07,29,10,16,26.90
2009,07,29,10,17,26.90
2009,07,29,10,18,27.00
2009,07,29,10,19,27.00
2009,07,29,10,20,27.10
2009,07,29,10,21,27.10
2009,07,29,10,22,27.10
2009,07,29,10,23,27.20
2009,07,29,10,24,27.20
2009,07,29,10,25,27.20
2009,07,29,10,26,27.20
2009,07,29,10,27,27.30
2009,07,29,10,28,27.30
2009,07,29,10,29,27.30
2009,07,29,10,30,27.30
2009,07,29,10,31,27.30
2009,07,29,10,32,27.30
2009,07,29,10,33,27.30
2009,07,29,10,34,27.30
2009,07,29,10,35,27.30
2009,07,29,10,36,27.50
2009,07,29,10,37,27.60
2009,07,29,10,38,27.60
2009,07,29,10,39,27.70
2009,07,29,10,40,27.80
2009,07,29,10,41,27.80
2009,07,29,10,42,27.90
2009,07,29,10,43,27.90
2009,07,29,10,44,28.00
2009,07,29,10,45,28.10
2009,07,29,10,46,28.20
2009,07,29,10,47,28.20
2009,07,29,10,48,28.30
2009,07,29,10,49,28.30
2009,07,29,10,50,28.40
2009,07,29,10,51,28.40
2009,07,29,10,52,28.40
2009,07,29,10,53,28.40
2009,07,29,10,54,28.40
2009,07,29,10,55,28.30
2009,07,29,10,56,28.30
2009,07,29,10,57,28.30
2009,07,29,10,58,28.30
2009,07,29,10,59,28.30
2009,07,29,11,00,28.30
2009,07,29,11,01,28.30
2009,07,29,11,02,28.30
2009,07,29,11,03,28.30
2009,07,29,11,04,28.40
2009,07,29,11,05,28.40
2009,07,29,11,06,28.50
2009,07,29,11,07,28.50
2009,07,29,11,08,28.60
2009,07,29,11,09,28.60
2009,07,29,11,10,28.60
2009,07,29,11,11,28.50
2009,07,29,11,12,28.40
2009,07,29,11,13,28.30
2009,07,29,11,14,28.30
2009,07,29,11,15,28.20
2009,07,29,11,16,28.30
2009,07,29,11,17,28.30
2009,07,29,11,18,28.30
2009,07,29,11,19,28.40
2009,07,29,11,20,28.50
2009,07,29,11,21,28.60
2009,07,29,11,22,28.70
2009,07,29,11,23,28.70
2009,07,29,11,24,28.80
2009,07,29,11,25,28.80
2009,07,29,11,26,28.90
2009,07,29,11,27,28.90
2009,07,29,11,28,28.90
2009,07,29,11,29,29.00
2009,07,29,11,30,29.00
2009,07,29,11,31,29.00
2009,07,29,11,32,28.90
2009,07,29,11,33,29.00
2009,07,29,11,34,29.00
2009,07,29,11,35,29.10
2009,07,29,11,36,29.10
2009,07,29,11,37,29.10
2009,07,29,11,38,29.10
2009,07,29,11,39,29.10
2009,07,29,11,40,29.20
2009,07,29,11,41,29.20
2009,07,29,11,42,29.20
2009,07,29,11,43,29.20
2009,07,29,11,44,29.20
2009,07,29,11,45,29.30
2009,07,29,11,46,29.30
2009,07,29,11,47,29.30
2009,07,29,11,48,29.30
2009,07,29,11,49,29.30
2009,07,29,11,50,29.20
2009,07,29,11,51,29.20
2009,07,29,11,52,29.10
2009,07,29,11,53,29.10
2009,07,29,11,54,29.00
2009,07,29,11,55,29.00
2009,07,29,11,56,29.00
2009,07,29,11,57,28.90
2009,07,29,11,58,28.80
2009,07,29,11,59,28.80
2009,07,29,12,00,28.80
2009,07,29,12,01,28.80
2009,07,29,12,02,28.80
2009,07,29,12,03,28.80
2009,07,29,12,04,28.90
2009,07,29,12,05,28.90
2009,07,29,12,06,28.90
2009,07,29,12,07,29.00
2009,07,29,12,08,29.00
2009,07,29,12,09,29.10
2009,07,29,12,10,29.10
2009,07,29,12,11,29.20
2009,07,29,12,12,29.30
2009,07,29,12,13,29.30
2009,07,29,12,14,29.40
2009,07,29,12,15,29.40
2009,07,29,12,16,29.40
2009,07,29,12,17,29.40
2009,07,29,12,18,29.40
2009,07,29,12,19,29.40
2009,07,29,12,20,29.40
2009,07,29,12,21,29.40
2009,07,29,12,22,29.40
2009,07,29,12,23,29.40
2009,07,29,12,24,29.50
2009,07,29,12,25,29.50
2009,07,29,12,26,29.60
2009,07,29,12,27,29.80
2009,07,29,12,28,29.90
2009,07,29,12,29,30.00
2009,07,29,12,30,30.00
2009,07,29,12,31,30.10
2009,07,29,12,32,30.10
2009,07,29,12,33,30.10
2009,07,29,12,34,30.10
2009,07,29,12,35,30.10
2009,07,29,12,36,30.20
2009,07,29,12,37,30.20
2009,07,29,12,38,30.20
2009,07,29,12,39,30.30
2009,07,29,12,40,30.30
2009,07,29,12,41,30.30
2009,07,29,12,42,30.30
2009,07,29,12,43,30.30
2009,07,29,12,44,30.30
2009,07,29,12,45,30.30
2009,07,29,12,46,30.40
2009,07,29,12,47,30.50
2009,07,29,12,48,30.50
2009,07,29,12,49,30.60
2009,07,29,12,50,30.60
2009,07,29,12,51,30.60
2009,07,29,12,52,30.70
2009,07,29,12,53,30.60
2009,07,29,12,54,30.60
2009,07,29,12,55,30.60
2009,07,29,12,56,30.60
2009,07,29,12,57,30.60
2009,07,29,12,58,30.50
2009,07,29,12,59,30.50
2009,07,29,13,00,30.60
2009,07,29,13,01,30.60
2009,07,29,13,02,30.70
2009,07,29,13,03,30.70
2009,07,29,13,04,30.80
2009,07,29,13,05,30.90
2009,07,29,13,06,30.90
2009,07,29,13,07,31.10
2009,07,29,13,08,31.20
2009,07,29,13,09,31.30
2009,07,29,13,10,31.30
2009,07,29,13,11,31.40
2009,07,29,13,12,31.40
2009,07,29,13,13,31.40
2009,07,29,13,14,31.50
2009,07,29,13,15,31.50
2009,07,29,13,16,31.60
2009,07,29,13,17,31.60
2009,07,29,13,18,31.60
2009,07,29,13,19,31.70
2009,07,29,13,20,31.70
2009,07,29,13,21,31.70
2009,07,29,13,22,31.70
2009,07,29,13,23,31.70
2009,07,29,13,24,31.70
2009,07,29,13,25,31.70
2009,07,29,13,26,31.70
2009,07,29,13,27,31.70
2009,07,29,13,28,31.70
2009,07,29,13,29,31.70
2009,07,29,13,30,31.70
2009,07,29,13,31,31.70
2009,07,29,13,32,31.70
2009,07,29,13,33,31.70
2009,07,29,13,34,31.80
2009,07,29,13,35,31.90
2009,07,29,13,36,32.00
2009,07,29,13,37,32.10
2009,07,29,13,38,32.20
2009,07,29,13,39,32.30
2009,07,29,13,40,32.30
2009,07,29,13,41,32.30
2009,07,29,13,42,32.40
2009,07,29,13,43,32.40
2009,07,29,13,44,32.50
2009,07,29,13,45,32.60
2009,07,29,13,46,32.70
2009,07,29,13,47,32.80
2009,07,29,13,48,32.80
2009,07,29,13,49,32.90
2009,07,29,13,50,33.00
2009,07,29,13,51,33.00
2009,07,29,13,52,33.10
2009,07,29,13,53,33.10
2009,07,29,13,54,33.20
2009,07,29,13,55,33.20
2009,07,29,13,56,33.30
2009,07,29,13,57,33.30
2009,07,29,13,58,33.40
2009,07,29,13,59,33.40
2009,07,29,14,00,33.40
2009,07,29,14,01,33.40
2009,07,29,14,02,33.30
2009,07,29,14,03,33.30
2009,07,29,14,04,33.30
2009,07,29,14,05,33.30
2009,07,29,14,06,33.30
2009,07,29,14,07,33.40
2009,07,29,14,08,33.40
2009,07,29,14,09,33.50
2009,07,29,14,10,33.50
2009,07,29,14,11,33.50
2009,07,29,14,12,33.40
2009,07,29,14,13,33.40
2009,07,29,14,14,33.40
2009,07,29,14,15,33.40
2009,07,29,14,16,33.40
2009,07,29,14,17,33.50
2009,07,29,14,18,33.50
2009,07,29,14,19,33.60
2009,07,29,14,20,33.50
2009,07,29,14,21,33.50
2009,07,29,14,22,33.40
2009,07,29,14,23,33.30
2009,07,29,14,24,33.20
2009,07,29,14,25,33.20
2009,07,29,14,26,33.20
2009,07,29,14,27,33.20
2009,07,29,14,28,33.30
2009,07,29,14,29,33.30
2009,07,29,14,30,33.30
2009,07,29,14,31,33.30
2009,07,29,14,32,33.40
2009,07,29,14,33,33.40
2009,07,29,14,34,33.50
2009,07,29,14,35,33.50
2009,07,29,14,36,33.50
2009,07,29,14,37,33.60
2009,07,29,14,38,33.60
2009,07,29,14,39,33.70
2009,07,29,14,40,33.70
2009,07,29,14,41,33.70
2009,07,29,14,42,33.70
2009,07,29,14,43,33.70
2009,07,29,14,44,33.80
2009,07,29,14,45,33.80
2009,07,29,14,46,33.90
2009,07,29,14,47,33.90
2009,07,29,14,48,34.00
2009,07,29,14,49,34.10
2009,07,29,14,50,34.20
2009,07,29,14,51,34.20
2009,07,29,14,52,34.30
2009,07,29,14,53,34.30
2009,07,29,14,54,34.30
2009,07,29,14,55,34.30
2009,07,29,14,56,34.20
2009,07,29,14,57,34.20
2009,07,29,14,58,34.20
2009,07,29,14,59,34.20
2009,07,29,15,00,34.20
2009,07,29,15,01,34.20
2009,07,29,15,02,34.10
2009,07,29,15,03,34.10
2009,07,29,15,04,34.10
2009,07,29,15,05,34.00
2009,07,29,15,06,34.00
2009,07,29,15,07,34.00
2009,07,29,15,08,34.00
2009,07,29,15,09,34.10
2009,07,29,15,10,34.20
2009,07,29,15,11,34.30
2009,07,29,15,12,34.30
2009,07,29,15,13,34.30
2009,07,29,15,14,34.40
2009,07,29,15,15,34.40
2009,07,29,15,16,34.30
2009,07,29,15,17,34.30
2009,07,29,15,18,34.20
2009,07,29,15,19,34.20
2009,07,29,15,20,34.20
2009,07,29,15,21,34.20
2009,07,29,15,22,34.20
2009,07,29,15,23,34.20
2009,07,29,15,24,34.30
2009,07,29,15,25,34.30
2009,07,29,15,26,34.40
2009,07,29,15,27,34.40
2009,07,29,15,28,34.40
2009,07,29,15,29,34.40
2009,07,29,15,30,34.40
2009,07,29,15,31,34.50
2009,07,29,15,32,34.50
2009,07,29,15,33,34.50
2009,07,29,15,34,34.50
2009,07,29,15,35,34.50
2009,07,29,15,36,34.60
2009,07,29,15,37,34.70
2009,07,29,15,38,34.70
2009,07,29,15,39,34.80
2009,07,29,15,40,34.80
2009,07,29,15,41,34.90
2009,07,29,15,42,34.90
2009,07,29,15,43,35.00
2009,07,29,15,44,35.10
2009,07,29,15,45,35.20
2009,07,29,15,46,35.30
2009,07,29,15,47,35.40
2009,07,29,15,48,35.50
2009,07,29,15,49,35.50
2009,07,29,15,50,35.30
2009,07,29,15,51,35.20
2009,07,29,15,52,35.00
2009,07,29,15,53,34.90
2009,07,29,15,54,34.80
2009,07,29,15,55,34.70
2009,07,29,15,56,34.60
2009,07,29,15,57,34.50
2009,07,29,15,58,34.30
2009,07,29,15,59,34.20
2009,07,29,16,00,34.10
2009,07,29,16,01,34.00
2009,07,29,16,02,33.90
2009,07,29,16,03,33.70
2009,07,29,16,04,33.50
2009,07,29,16,05,33.30
2009,07,29,16,06,33.20
2009,07,29,16,07,33.10
2009,07,29,16,08,32.90
2009,07,29,16,09,32.90
2009,07,29,16,10,32.80
2009,07,29,16,11,32.80
2009,07,29,16,12,32.80
2009,07,29,16,13,32.80
2009,07,29,16,14,32.80
2009,07,29,16,15,32.80
2009,07,29,16,16,32.90
2009,07,29,16,17,32.90
2009,07,29,16,18,32.90
2009,07,29,16,19,32.90
2009,07,29,16,20,32.90
2009,07,29,16,21,32.90
2009,07,29,16,22,33.00
2009,07,29,16,23,33.00
2009,07,29,16,24,33.10
2009,07,29,16,25,33.10
2009,07,29,16,26,33.20
2009,07,29,16,27,33.40
2009,07,29,16,28,33.50
2009,07,29,16,29,33.70
2009,07,29,16,30,33.90
2009,07,29,16,31,34.00
2009,07,29,16,32,34.10
2009,07,29,16,33,34.20
2009,07,29,16,34,34.40
2009,07,29,16,35,34.50
2009,07,29,16,36,34.60
2009,07,29,16,37,34.80
2009,07,29,16,38,34.80
2009,07,29,16,39,34.90
2009,07,29,16,40,35.00
2009,07,29,16,41,35.10
2009,07,29,16,42,35.10
2009,07,29,16,43,35.10
2009,07,29,16,44,35.10
2009,07,29,16,45,35.20
2009,07,29,16,46,35.20
2009,07,29,16,47,35.30
2009,07,29,16,48,35.30
2009,07,29,16,49,35.40
2009,07,29,16,50,35.50
2009,07,29,16,51,35.60
2009,07,29,16,52,35.60
2009,07,29,16,53,35.70
2009,07,29,16,54,35.80
2009,07,29,16,55,35.80
2009,07,29,16,56,35.90
2009,07,29,16,57,36.00
2009,07,29,16,58,36.10
2009,07,29,16,59,36.10
2009,07,29,17,00,36.20
2009,07,29,17,01,36.20
2009,07,29,17,02,36.20
2009,07,29,17,03,36.20
2009,07,29,17,04,36.20
2009,07,29,17,05,36.10
2009,07,29,17,06,35.90
2009,07,29,17,07,35.60
2009,07,29,17,08,35.20
2009,07,29,17,09,34.90
2009,07,29,17,10,34.50
2009,07,29,17,11,34.20
2009,07,29,17,12,33.90
2009,07,29,17,13,33.60
2009,07,29,17,14,33.30
2009,07,29,17,15,33.00
2009,07,29,17,16,32.80
2009,07,29,17,17,32.50
2009,07,29,17,18,32.30
2009,07,29,17,19,32.00